sat.trackr.live / text

‹ back to catalog

STARLINK-3858

NORAD 52553 · 2022-051W

PAYLOAD ACTIVE UNKNOWN

§ Identity

Operator
Country
US
Launch date
2022-05-13
Launch site
AFWTR
Launch vehicle
Mass (kg)
RCS (m²)

Purposes: comms

External: N2YO · Heavens-Above · Gunter

§ Orbital elements

Epoch: 2026-07-01T21:51:43.490592Z

Period
87.44 min
Inclination
53.2054°
Eccentricity
0.0007526
Mean motion
16.46764132 rev/d
Perigee alt
143.0 km
Apogee alt
152.8 km
Semi-major
6,526.0 km
B*
1.9265e-4
RAAN
306.7588°
Arg perigee
308.9478°
Mean anomaly
51.0902°
Rev number
22,910

§ Raw data

STARLINK-38581 52553U 22051W   26182.91092003  .09929172  12615-4  19265-3 0  99972 52553  53.2054 306.7588 0007526 308.9478  51.0902 16.46764132229108

JSON: /api/v1/satellites/52553 · /tle

For live sub-satellite position, see the globe view (requires WebGL).

§ Visibility from observer

Set your observer location to see the next 7 days of passes ≥ 10°. The values pass through the URL so the page stays shareable.

No JS? Fill the form by hand. The geolocation button needs JavaScript.